Time,TemperatureF,DewpointF,PressureIn,WindDirection,WindDirectionDegrees,WindSpeedMPH,WindSpeedGustMPH,Humidity,HourlyPrecipIn,Conditions,Clouds,dailyrainin,SolarRadiationWatts/m^2,SoftwareType,DateUTC
2013-01-15 00:04:00,42.0,42.0,30.50,West,260,4.0,11.0,99,0.02,,,2.35,0.000000,,2013-01-15 05:04:00,
2013-01-15 00:33:00,42.0,42.0,30.46,NNE,15,2.0,5.0,99,0.02,,,2.24,0.000000,,2013-01-15 05:33:00,
2013-01-15 00:42:00,42.0,42.0,30.46,NNE,15,2.0,5.0,99,0.02,,,2.24,0.000000,,2013-01-15 05:42:00,
2013-01-15 00:53:00,42.0,42.0,30.46,NNE,15,2.0,5.0,99,0.02,,,2.24,0.000000,,2013-01-15 05:53:00,
2013-01-15 01:03:00,42.0,42.0,30.46,NNE,15,2.0,5.0,99,0.02,,,2.24,0.000000,,2013-01-15 06:03:00,
2013-01-15 01:33:00,44.0,44.0,30.46,SW,223,1.0,3.0,99,0.01,,,1.91,0.000000,,2013-01-15 06:33:00,
2013-01-15 01:43:00,44.0,44.0,30.46,SW,223,1.0,3.0,99,0.01,,,1.91,0.000000,,2013-01-15 06:43:00,
2013-01-15 01:53:00,44.0,44.0,30.46,SW,223,1.0,3.0,99,0.01,,,1.91,0.000000,,2013-01-15 06:53:00,
2013-01-15 02:02:00,44.0,44.0,30.46,SW,223,1.0,3.0,99,0.01,,,1.91,0.000000,,2013-01-15 07:02:00,
2013-01-15 02:33:00,45.0,45.0,30.43,ESE,106,2.0,7.0,99,0.00,,,1.86,0.000000,,2013-01-15 07:33:00,
2013-01-15 02:43:00,45.0,45.0,30.43,ESE,106,2.0,7.0,99,0.00,,,1.86,0.000000,,2013-01-15 07:43:00,
2013-01-15 02:53:00,45.0,45.0,30.43,ESE,106,2.0,7.0,99,0.00,,,1.86,0.000000,,2013-01-15 07:53:00,
2013-01-15 03:02:00,45.0,45.0,30.43,ESE,106,2.0,7.0,99,0.00,,,1.86,0.000000,,2013-01-15 08:02:00,
2013-01-15 03:33:00,45.0,45.0,30.43,ENE,62,2.0,5.0,99,0.00,,,1.84,0.000000,,2013-01-15 08:33:00,
2013-01-15 03:43:00,45.0,45.0,30.43,ENE,62,2.0,5.0,99,0.00,,,1.84,0.000000,,2013-01-15 08:43:00,
2013-01-15 03:53:00,45.0,45.0,30.43,ENE,62,2.0,5.0,99,0.00,,,1.84,0.000000,,2013-01-15 08:53:00,
2013-01-15 04:02:00,45.0,45.0,30.43,ENE,62,2.0,5.0,99,0.00,,,1.84,0.000000,,2013-01-15 09:02:00,
2013-01-15 04:33:00,44.0,44.0,30.41,East,96,2.0,5.0,99,0.00,,,1.84,0.000000,,2013-01-15 09:33:00,
2013-01-15 04:43:00,44.0,44.0,30.41,East,96,2.0,5.0,99,0.00,,,1.84,0.000000,,2013-01-15 09:43:00,
2013-01-15 04:52:00,44.0,44.0,30.41,East,96,2.0,5.0,99,0.00,,,1.84,0.000000,,2013-01-15 09:52:00,
2013-01-15 05:02:00,44.0,44.0,30.41,East,96,2.0,5.0,99,0.00,,,1.84,0.000000,,2013-01-15 10:02:00,
2013-01-15 05:33:00,45.0,45.0,30.38,North,3,2.0,6.0,99,0.00,,,1.83,0.000000,,2013-01-15 10:33:00,
2013-01-15 05:42:00,45.0,45.0,30.38,North,3,2.0,6.0,99,0.00,,,1.83,0.000000,,2013-01-15 10:42:00,
2013-01-15 05:52:00,45.0,45.0,30.38,North,3,2.0,6.0,99,0.00,,,1.83,0.000000,,2013-01-15 10:52:00,
2013-01-15 06:02:00,45.0,45.0,30.38,North,3,2.0,6.0,99,0.00,,,1.83,0.000000,,2013-01-15 11:02:00,
2013-01-15 06:33:00,47.0,47.0,30.41,North,355,3.0,4.0,99,0.08,,,1.91,0.000000,,2013-01-15 11:33:00,
2013-01-15 06:43:00,47.0,47.0,30.41,North,355,3.0,4.0,99,0.08,,,1.91,0.000000,,2013-01-15 11:43:00,
2013-01-15 06:53:00,47.0,47.0,30.41,North,355,3.0,4.0,99,0.08,,,1.91,0.000000,,2013-01-15 11:53:00,
2013-01-15 07:03:00,47.0,47.0,30.41,North,355,3.0,4.0,99,0.08,,,1.91,0.000000,,2013-01-15 12:03:00,
2013-01-15 07:33:00,46.0,46.0,30.40,West,263,2.0,3.0,99,0.13,,,1.98,0.000000,,2013-01-15 12:33:00,
2013-01-15 07:43:00,46.0,46.0,30.40,West,263,2.0,3.0,99,0.13,,,1.98,0.000000,,2013-01-15 12:43:00,
2013-01-15 07:53:00,46.0,46.0,30.40,West,263,2.0,3.0,99,0.13,,,1.98,0.000000,,2013-01-15 12:53:00,
2013-01-15 08:03:00,46.0,46.0,30.40,West,263,2.0,3.0,99,0.13,,,1.98,0.000000,,2013-01-15 13:03:00,
2013-01-15 08:33:00,47.0,47.0,30.43,NNW,336,1.0,5.0,99,0.08,,,2.03,0.000000,,2013-01-15 13:33:00,
2013-01-15 08:43:00,47.0,47.0,30.43,NNW,336,1.0,5.0,99,0.08,,,2.03,0.000000,,2013-01-15 13:43:00,
2013-01-15 08:53:00,47.0,47.0,30.43,NNW,336,1.0,5.0,99,0.08,,,2.03,0.000000,,2013-01-15 13:53:00,
2013-01-15 09:03:00,47.0,47.0,30.43,NNW,336,1.0,5.0,99,0.08,,,2.03,0.000000,,2013-01-15 14:03:00,
2013-01-15 09:33:00,46.0,46.0,30.44,ENE,71,2.0,9.0,99,0.12,,,2.11,5.000000,,2013-01-15 14:33:00,
2013-01-15 09:43:00,46.0,46.0,30.44,ENE,71,2.0,9.0,99,0.12,,,2.11,5.000000,,2013-01-15 14:43:00,
2013-01-15 09:54:00,46.0,46.0,30.44,ENE,71,2.0,9.0,99,0.12,,,2.11,5.000000,,2013-01-15 14:54:00,
2013-01-15 10:03:00,46.0,46.0,30.44,ENE,71,2.0,9.0,99,0.12,,,2.11,5.000000,,2013-01-15 15:03:00,
2013-01-15 10:33:00,44.0,44.0,30.43,West,278,1.0,7.0,99,0.09,,,2.04,15.000000,,2013-01-15 15:33:00,
2013-01-15 10:43:00,44.0,44.0,30.43,West,278,1.0,7.0,99,0.09,,,2.04,15.000000,,2013-01-15 15:43:00,
2013-01-15 10:53:00,44.0,44.0,30.43,West,278,1.0,7.0,99,0.09,,,2.04,15.000000,,2013-01-15 15:53:00,
2013-01-15 11:03:00,44.0,44.0,30.43,West,278,1.0,7.0,99,0.09,,,2.04,15.000000,,2013-01-15 16:03:00,
2013-01-15 11:33:00,46.0,46.0,30.43,WSW,246,1.0,4.0,99,0.09,,,1.98,24.000000,,2013-01-15 16:33:00,
2013-01-15 11:43:00,46.0,46.0,30.43,WSW,246,1.0,4.0,99,0.09,,,1.98,24.000000,,2013-01-15 16:43:00,
2013-01-15 11:53:00,46.0,46.0,30.43,WSW,246,1.0,4.0,99,0.09,,,1.98,24.000000,,2013-01-15 16:53:00,
2013-01-15 12:04:00,46.0,46.0,30.43,WSW,246,1.0,4.0,99,0.09,,,1.98,24.000000,,2013-01-15 17:04:00,
2013-01-15 12:33:00,44.0,44.0,30.41,WSW,238,2.0,5.0,99,0.07,,,1.93,38.000000,,2013-01-15 17:33:00,
2013-01-15 12:43:00,44.0,44.0,30.41,WSW,238,2.0,5.0,99,0.07,,,1.93,38.000000,,2013-01-15 17:43:00,
2013-01-15 12:53:00,44.0,44.0,30.41,WSW,238,2.0,5.0,99,0.07,,,1.93,38.000000,,2013-01-15 17:53:00,
2013-01-15 13:03:00,44.0,44.0,30.41,WSW,238,2.0,5.0,99,0.07,,,1.93,38.000000,,2013-01-15 18:03:00,
2013-01-15 13:34:00,46.0,46.0,30.37,WSW,253,1.0,4.0,99,0.01,,,1.76,35.000000,,2013-01-15 18:34:00,
2013-01-15 13:43:00,46.0,46.0,30.37,WSW,253,1.0,4.0,99,0.01,,,1.76,35.000000,,2013-01-15 18:43:00,
2013-01-15 13:54:00,46.0,46.0,30.37,WSW,253,1.0,4.0,99,0.01,,,1.76,35.000000,,2013-01-15 18:54:00,
2013-01-15 14:03:00,46.0,46.0,30.37,WSW,253,1.0,4.0,99,0.01,,,1.76,35.000000,,2013-01-15 19:03:00,
2013-01-15 14:33:00,46.0,46.0,30.35,North,8,1.0,3.0,99,0.01,,,1.53,46.000000,,2013-01-15 19:33:00,
2013-01-15 14:43:00,46.0,46.0,30.35,North,8,1.0,3.0,99,0.01,,,1.53,46.000000,,2013-01-15 19:43:00,
2013-01-15 14:53:00,46.0,46.0,30.35,North,8,1.0,3.0,99,0.01,,,1.53,46.000000,,2013-01-15 19:53:00,
2013-01-15 15:04:00,46.0,46.0,30.35,North,8,1.0,3.0,99,0.01,,,1.53,46.000000,,2013-01-15 20:04:00,
2013-01-15 15:33:00,50.0,50.0,30.34,SE,142,3.0,5.0,99,0.06,,,1.44,32.000000,,2013-01-15 20:33:00,
2013-01-15 15:44:00,50.0,50.0,30.34,SE,142,3.0,5.0,99,0.06,,,1.44,32.000000,,2013-01-15 20:44:00,
2013-01-15 15:53:00,50.0,50.0,30.34,SE,142,3.0,5.0,99,0.06,,,1.44,32.000000,,2013-01-15 20:53:00,
2013-01-15 16:03:00,50.0,50.0,30.34,SE,142,3.0,5.0,99,0.06,,,1.44,32.000000,,2013-01-15 21:03:00,
2013-01-15 16:34:00,51.0,51.0,30.34,North,351,1.0,4.0,99,0.07,,,1.26,22.000000,,2013-01-15 21:34:00,
2013-01-15 16:43:00,51.0,51.0,30.34,North,351,1.0,4.0,99,0.07,,,1.26,22.000000,,2013-01-15 21:43:00,
2013-01-15 16:53:00,51.0,51.0,30.34,North,351,1.0,4.0,99,0.07,,,1.26,22.000000,,2013-01-15 21:53:00,
2013-01-15 17:03:00,51.0,51.0,30.34,North,351,1.0,4.0,99,0.07,,,1.26,22.000000,,2013-01-15 22:03:00,
2013-01-15 17:33:00,51.0,51.0,30.34,East,87,1.0,5.0,99,0.03,,,1.15,13.000000,,2013-01-15 22:33:00,
2013-01-15 17:43:00,51.0,51.0,30.34,East,87,1.0,5.0,99,0.03,,,1.15,13.000000,,2013-01-15 22:43:00,
2013-01-15 17:53:00,51.0,51.0,30.34,East,87,1.0,5.0,99,0.03,,,1.15,13.000000,,2013-01-15 22:53:00,
2013-01-15 18:03:00,51.0,51.0,30.34,East,87,1.0,5.0,99,0.03,,,1.15,13.000000,,2013-01-15 23:03:00,
2013-01-15 18:33:00,49.0,49.0,30.36,SE,133,2.0,5.0,99,0.11,,,1.20,0.000000,,2013-01-15 23:33:00,
2013-01-15 18:43:00,49.0,49.0,30.36,SE,133,2.0,5.0,99,0.11,,,1.20,0.000000,,2013-01-15 23:43:00,
2013-01-15 18:53:00,49.0,49.0,30.36,SE,133,2.0,5.0,99,0.11,,,1.20,0.000000,,2013-01-15 23:53:00,
2013-01-15 19:03:00,49.0,49.0,30.36,SE,133,2.0,5.0,99,0.11,,,1.20,0.000000,,2013-01-16 00:03:00,
2013-01-15 19:33:00,50.0,50.0,30.35,SSW,211,1.0,7.0,99,0.06,,,1.16,0.000000,,2013-01-16 00:33:00,
2013-01-15 19:43:00,50.0,50.0,30.35,SSW,211,1.0,7.0,99,0.06,,,1.16,0.000000,,2013-01-16 00:43:00,
2013-01-15 19:53:00,50.0,50.0,30.35,SSW,211,1.0,7.0,99,0.06,,,1.16,0.000000,,2013-01-16 00:53:00,
2013-01-15 20:03:00,50.0,50.0,30.35,SSW,211,1.0,7.0,99,0.06,,,1.16,0.000000,,2013-01-16 01:03:00,
2013-01-15 20:33:00,48.0,48.0,30.33,WSW,247,2.0,7.0,99,0.03,,,-99.99,0.000000,,2013-01-16 01:33:00,
2013-01-15 20:43:00,48.0,48.0,30.33,WSW,247,2.0,7.0,99,0.03,,,-99.99,0.000000,,2013-01-16 01:43:00,
2013-01-15 20:53:00,48.0,48.0,30.33,WSW,247,2.0,7.0,99,0.03,,,-99.99,0.000000,,2013-01-16 01:53:00,
2013-01-15 21:03:00,48.0,48.0,30.33,WSW,247,2.0,7.0,99,0.03,,,-99.99,0.000000,,2013-01-16 02:03:00,
2013-01-15 21:33:00,49.0,49.0,30.33,SW,234,3.0,7.0,99,0.02,,,1.12,0.000000,,2013-01-16 02:33:00,
2013-01-15 21:43:00,49.0,49.0,30.33,SW,234,3.0,7.0,99,0.02,,,1.12,0.000000,,2013-01-16 02:43:00,
2013-01-15 21:53:00,49.0,49.0,30.33,SW,234,3.0,7.0,99,0.02,,,1.12,0.000000,,2013-01-16 02:53:00,
2013-01-15 22:03:00,49.0,49.0,30.33,SW,234,3.0,7.0,99,0.02,,,1.12,0.000000,,2013-01-16 03:03:00,
2013-01-15 22:33:00,49.0,49.0,30.32,West,270,2.0,6.0,99,0.01,,,1.12,0.000000,,2013-01-16 03:33:00,
2013-01-15 22:43:00,49.0,49.0,30.32,West,270,2.0,6.0,99,0.01,,,1.12,0.000000,,2013-01-16 03:43:00,
2013-01-15 22:53:00,49.0,49.0,30.32,West,270,2.0,6.0,99,0.01,,,1.12,0.000000,,2013-01-16 03:53:00,
2013-01-15 23:02:00,49.0,49.0,30.32,West,270,2.0,6.0,99,0.01,,,1.12,0.000000,,2013-01-16 04:02:00,
2013-01-15 23:33:00,47.0,47.0,30.31,WNW,294,2.0,6.0,99,0.00,,,1.10,0.000000,,2013-01-16 04:33:00,
2013-01-15 23:42:00,47.0,47.0,30.31,WNW,294,2.0,6.0,99,0.00,,,1.10,0.000000,,2013-01-16 04:42:00,
2013-01-15 23:53:00,47.0,47.0,30.31,WNW,294,2.0,6.0,99,0.00,,,1.10,0.000000,,2013-01-16 04:53:00,